Location: Hysolar-Haus
(48.7436°N, 9.0965°E)
Time: 20:25:38
(UTC+00:00)

Envisat - Visible Passes

Search period start: 19 October 2019 00:00
Search period end: 29 October 2019 00:00
Orbit: 764 x 766 km, 98.1° (Epoch: 19 October)

Date Brightness Start Highest point End Pass type
(mag) Time Alt. Az. Time Alt. Az. Time Alt. Az.
19 Oct 6.1 05:12:25 10° NE 05:15:57 19° E 05:19:28 10° SE visible
19 Oct 4.7 18:09:24 10° SSW 18:14:01 35° W 18:18:41 10° NNW visible
20 Oct 3.3 17:32:02 10° S 17:37:05 71° WSW 17:42:12 10° NNW visible
20 Oct 6.4 19:16:51 10° W 19:17:03 10° W 19:17:16 10° W visible
21 Oct 3.1 16:55:23 10° SSE 17:00:21 58° ENE 17:05:21 10° N visible
21 Oct 5.5 18:35:55 10° SW 18:39:45 21° W 18:43:38 10° NW visible
22 Oct 6.2 05:01:39 10° NE 05:04:32 15° E 05:07:25 10° ESE visible
22 Oct 4.3 17:57:52 10° S 18:02:42 43° W 18:07:33 10° NNW visible
23 Oct 3.0 17:20:44 10° SSE 17:25:49 87° WSW 17:30:57 10° NNW visible
23 Oct 6.1 19:03:21 10° WSW 19:05:36 13° W 19:07:52 10° WNW visible
24 Oct 3.3 16:44:17 10° SE 16:49:08 47° ENE 16:54:01 10° N visible
24 Oct 5.2 18:24:09 10° SSW 18:28:23 26° W 18:32:39 10° NW visible
25 Oct 6.4 04:51:11 10° ENE 04:53:07 12° E 04:55:01 10° ESE visible
25 Oct 3.8 17:46:25 10° S 17:51:22 53° W 17:56:22 10° NNW visible
26 Oct 2.9 17:09:29 10° SSE 17:14:33 77° ENE 17:19:40 10° NNW visible
26 Oct 5.9 18:51:06 10° SW 18:54:11 16° W 18:57:18 10° NW visible
27 Oct 6.0 05:15:14 10° NE 05:18:58 20° E 05:22:41 10° SE visible
27 Oct 4.8 18:12:30 10° SSW 18:17:01 32° W 18:21:35 10° NNW visible
28 Oct 3.4 17:35:02 10° S 17:40:04 66° WSW 17:45:09 10° NNW visible
